Location: Sternwarte ZA, Rosenfeld-Brittheim
(48.2889°N, 8.6789°E)
Time: 06:00:35
(UTC+02:00)

ISS - Pass Details

Date: 30 March 2020
Orbit: 417 x 423 km, 51.6° (Epoch: 29 March)

Event Time Altitude Azimuth Distance (km) Brightness Sun altitude
Rises 20:55:03 0° 288° (WNW) 2,362 2.4 -10.8°
Reaches altitude 10° 20:57:10 10° 293° (WNW) 1,497 0.6 -11.1°
Maximum altitude 21:00:29 56° 13° (NNE) 501 -3.4 -11.7°
Enters shadow 21:02:43 19° 88° (E) 1,078 -2.2 -12.0°
